Regional Weather Roundup
Issued by NWS

Home | Current Version | Previous Version | Text Only | Print | Product List | Glossary On
Versions: 1 2 3 4 5 6 7 8 9 10 11 12 13 14 15 16 17 18 19 20 21 22 23 24 25 26 27 28 29 30 31 32 33 34 35 36 37 38 39 40 41 42 43 44 45 46 47 48
000
ASUS42 KTBW 191917
RWRFL
FLORIDA REGIONAL WEATHER ROUNDUP
NATIONAL WEATHER SERVICE TAMPA BAY RUSKIN FL
200 PM EST FRI JAN 19 2018

NOTE: "FAIR" INDICATES FEW OR NO CLOUDS BELOW 12,000 FEET WITH NO
SIGNIFICANT WEATHER AND/OR OBSTRUCTIONS TO VISIBILITY.

FLZ001>010-012>015-112-114-115-192000-
PANHANDLE FLORIDA

CITY           SKY/WX    TMP DP  RH WIND       PRES   REMARKS
PENSACOLA      FAIR      55  17  22 CALM      30.32F
PENSACOLA NAS  FAIR      51  21  30 SE7       30.32F
MILTON NAS     FAIR      54  18  24 NW7       30.32
CRESTVIEW      FAIR      57   7  13 CALM      30.32F
DUKE FIELD     MOSUNNY   55   7  14 CALM      30.30F
VALPARAISO     MOSUNNY   53  17  24 S5        30.30F
MARY ESTHER    MOSUNNY   51  24  35 SW7       30.30F
PANAMA CITY    FAIR      58  10  15 N6        30.29F
TYNDALL AFB    FAIR      56  21  25 W5        30.30F
APALACHICOLA   FAIR      53  21  28 S10       30.31F

STATION/POSITION SKY/WX   TEMP    WIND        PRES    WAVE   SWELL
                          AIR SEA DIR/SP/G            HT/PER HT/PER
                          (F)     (DEG/KT/KT) (MB)    (FT/S) (FT/S)
29.2N   88.2W              56 69   20/  8/ 12 1026.8
28.8N   86.0W              55 69   60/  8/ 12 1026.2F   1/ 3
PANAMA CITY BEAC           49 53  230/  6/  7 1026.6F
TOWER C                    49      50/  5/  6 1026.8F

$$
FLZ011-016>038-118-127-128-134-139-239-192000-
NORTH FLORIDA

CITY           SKY/WX    TMP DP  RH WIND       PRES   REMARKS
MARIANNA       FAIR      55   9  16 CALM      30.30F
TALLAHASSEE    FAIR      56  15  20 CALM      30.30F
PERRY          FAIR      59  12  15 CALM      30.30F
LIVE OAK       SUNNY     57  14  18 VRB3      30.30F
CROSS CITY     FAIR      58  16  19 W3        30.34F
LAKE CITY      FAIR      55  18  22 W5        30.29F
GAINESVILLE    FAIR      59  15  18 S5        30.31F
WILLISTON        N/A     64  14  14 SW5       30.28F
PALATKA        FAIR      59  14  17 CALM      30.29F
MAYPORT NAS    FAIR      57  18  21 W6        30.29F
JACKSONVILLE   FAIR      58  18  21 W5        30.27F
JAX NAS        FAIR      56  20  24 SE8       30.30F
JAX CECIL      SUNNY     59  18  20 CALM      30.29F
FERNANDINA BEA FAIR      57  19  23 SE3       30.27F
ST AUGUSTINE   FAIR      53  27  36 E7        30.30F
PALM COAST     SUNNY     61  36  39 VRB6      30.29F

STATION/POSITION SKY/WX   TEMP    WIND        PRES    WAVE   SWELL
                          AIR SEA DIR/SP/G            HT/PER HT/PER
                          (F)     (DEG/KT/KT) (MB)    (FT/S) (FT/S)
SHELL POINT      NOT AVBL
KEATON BEACH               48     280/  7/  9 1025.9F
CEDAR KEY                  50     260/  5/  8 1026.2F
FERNANDINA                 55 48  310/  1/  4 1026.5F
30.7N   81.3W                 50                N/A     2/12   2/12
MAYPORT                    54 49  310/  5/  9 1025.9F
31.4N   80.9W              47 51  190/ 10/ 12 1025.4F   2/11   2/11
ST AUGUSTINE               49 50   70/  5/  6 1026.3F

$$
FLZ040-043>046-052-053-057-058-063-144-192000-
INTERIOR CENTRAL FLORIDA

CITY           SKY/WX    TMP DP  RH WIND       PRES   REMARKS
OCALA          FAIR      61  18  18 CALM      30.29F
LEESBURG       FAIR      58  31  35 CALM      30.30F
SANFORD        FAIR      60  35  39 CALM      30.29F
ORLANDO EXEC   FAIR      62  36  37 CALM      30.28F
ORLANDO INTL   PTSUNNY   62  38  40 CALM      30.28F
KISSIMMEE      FAIR      63  43  48 VRB5      30.29F
WINTER HAVEN   FAIR      62  40  44 E5        30.29F
LAKELAND       MOSUNNY   63  39  42 CALM      30.28F
SEBRING        FAIR      69  44  39 E6        30.26F
OKEECHOBEE     FAIR      66  50  55 NE6       30.26F

$$
FLZ041-047-054-059-064-141-147-192000-
EAST CENTRAL FLORIDA

CITY           SKY/WX    TMP DP  RH WIND       PRES   REMARKS
ORMOND BEACH   SUNNY     57  34  41 CALM      30.29F
DAYTONA BEACH  FAIR      59  39  47 VRB3      30.30F
DELAND         FAIR      59  36  41 CALM      30.28F
NEW SMYRNA BEA MOSUNNY   57  37  47 N5        30.31F
JFK SPACE CTR  FAIR      59  48  67 N6        30.27F
TITUSVILLE     PTSUNNY   63  45  51 NE7       30.29F
CAPE CANAVERAL FAIR      61  46  57 N8        30.27F
PATRICK AFB    FAIR      62  48  58 NW7       30.27F
MELBOURNE      FAIR      64  48  56 N9        30.27F
VERO BEACH     FAIR      62  51  67 N10       30.26F
FT PIERCE      FAIR      64  53  67 N8        30.25F
STUART         MOSUNNY   66  55  68 N12       30.26F

STATION/POSITION SKY/WX   TEMP    WIND        PRES    WAVE   SWELL
                          AIR SEA DIR/SP/G            HT/PER HT/PER
                          (F)     (DEG/KT/KT) (MB)    (FT/S) (FT/S)
28.5N   80.2W              61 70  320/ 14/ 16 1025.1F   5/11   5/11
TRIDENT PIER               61 60  320/  5/  7 1026.8F
28.4N   80.5W                 60                N/A     2/11   2/11
27.5N   80.2W                 63                N/A     5/11   2/11

$$
FLZ050-056-061-142-242-148-248-149-249-151-251-155-255-
160-260-192000-
WEST CENTRAL FLORIDA

CITY           SKY/WX    TMP DP  RH WIND       PRES   REMARKS
CRYSTAL RIVER  FAIR      61  14  16 CALM      30.28F
INVERNESS      FAIR      59  28  31 CALM      30.29F HAZE
BROOKSVILLE    FAIR      61  33  35 E3        30.29F
CLEARWATER AIR FAIR      59  41  51 CALM      30.28F
ST PETE CLEARW FAIR      60  34  37 N6        30.28F
TAMPA INTL     FAIR      62  37  39 SW6       30.28F
TAMPA EXEC     FAIR      64  39  39 CALM      30.28F
PLANT CITY     FAIR      64  41  42 CALM      30.29F
MACDILL AFB    SUNNY     63  37  39 NW6       30.27F
PETER O KNIGHT FAIR      61  41  48 S5        30.28F
ST PETERSBURG  FAIR      60  40  47 E3        30.27F
SARASOTA       FAIR      65  44  46 E7        30.25F
VENICE           N/A     68  46  45 E7        30.26F

STATION/POSITION SKY/WX   TEMP    WIND        PRES    WAVE   SWELL
                          AIR SEA DIR/SP/G            HT/PER HT/PER
                          (F)     (DEG/KT/KT) (MB)    (FT/S) (FT/S)
27.3N   84.2W                 70                N/A     2/ 4
CLEARWATER BEACH           50 52  330/  7/  7 1025.7F
MIDDLE TAMPA BAY           54      10/  7/  8 1025.6F
VENICE                     63 57  270/  3/  4 1024.6F

$$
FLZ066-069-070-075>078-162-262-165-265-192000-
SOUTHWEST FLORIDA AND KEYS

CITY           SKY/WX    TMP DP  RH WIND       PRES   REMARKS
PUNTA GORDA    FAIR      66  46  48 SE6       30.27F
FT MYERS       FAIR      68  48  48 E8        30.23F
SOUTHWEST INTL FAIR      67  49  52 VRB7      30.24F
NAPLES         FAIR      69  50  50 E10       30.23F
MARCO ISLAND   FAIR      68  51  54 NE14      30.23F
IMMOKALEE      FAIR      70  50  49 E9        30.25F
MARATHON       FAIR      67  55  65 NE13      30.20F
KEY WEST NAS   PTSUNNY   67  59  75 NE7       30.21F
KEY WEST INTL  FAIR      66  56  70 NE9       30.22F

STATION/POSITION SKY/WX   TEMP    WIND        PRES    WAVE   SWELL
                          AIR SEA DIR/SP/G            HT/PER HT/PER
                          (F)     (DEG/KT/KT) (MB)    (FT/S) (FT/S)
NAPLES                        60  110/  4/  8 1023.7F
DRY TORTUGAS               63      70/ 13/ 15 1023.3F
SAND KEY                   63                 1023.8F
LONG KEY                   61     150/  3       N/A
MOLASSES REEF              65 70   30/ 12/ 14 1023.0F

$$
FLZ067-068-071>074-168-172>174-192000-
SOUTHEAST FLORIDA

CITY           SKY/WX    TMP DP  RH WIND       PRES   REMARKS
W PALM BEACH   PTSUNNY   67  53  61 E7        30.24F
BOCA RATON     PTSUNNY   68  52  56 E12       30.24F
FT LAUDER-EXEC PTSUNNY   68  52  56 E13       30.23F
FT LAUDERDALE  PTSUNNY   68  54  60 E13G18    30.22F
POMPANO BEACH  PTSUNNY   69  53  56 E12       30.23F
PEMBROKE PINES FAIR      72  51  47 NE13      30.24F
OPA LOCKA      FAIR      69  52  54 E14       30.23F
MIAMI          PTSUNNY   71  53  52 E10       30.23F
WEST KENDALL   PTSUNNY   68  52  56 E9G17     30.23F
HOMESTEAD      MOSUNNY   70  56  63 E10G20    30.22F

STATION/POSITION SKY/WX   TEMP    WIND        PRES    WAVE   SWELL
                          AIR SEA DIR/SP/G            HT/PER HT/PER
                          (F)     (DEG/KT/KT) (MB)    (FT/S) (FT/S)
PORT EVERGLADES            67      80/  8/ 13 1023.7
VIRGINIA KEY               67 68   40/  8/ 11 1023.4F
LAKE WORTH                 65 72   60/  9/ 12 1025.0F
FOWEY ROCKS                66 72   60/ 10/ 12 1024.2F
SETTLEMENT POINT           63      40/  6/  9 1024.3F

$$




USA.gov is the U.S. government's official web portal to all federal, state and local government web resources and services.